Showing default

XW-3 (CAS 9), 50466

Orbit data source: Space-Track

XW-3 (CAS 9), 50466 is a payload satellite owned by CAMSAT (CN) in SSO that was launched on Sun, 26 Dec 2021 UTC via a CHANG ZHENG 4C launch vehicle from the Taiyaun Space Center, China (TSC). Payload-class satellites include a variety of spacecraft equipped with specific instruments for various scientific and technological missions. These include communications satellites like Starlink; space stations such as the ISS; scientific satellites like the Hubble; Earth observation satellites from companies like Planet Labs, Umbra, and HawkEye 360; GPS; miniature CubeSats for education and research; and military/defense satellites.

Loading next visibility...
Identifier
50466, 2021-131B
Orbit
SSO
Country
Flag of CNCN / PRC
Related business
Manufacturer
YLYZ/CAMSAT
Mission
Operational Amateur Communications
Bus & Motor
CUBESAT 6U, Unknown motor
Mass
10 kg wet, 10 kg dry
Launch date (UTC)
2021-12-26 (4 years ago)
Launch vehicle
CHANG ZHENG 4C
Launch site
Taiyaun Space Center, China (TSC)
Object type
Payload
Rocket body
Debris
Shape & HBR
Box + 2 Pan + 1 Ant, 0.5 m
Radar Cross Section
0.089 m², Medium (>0.1 m² and < 1m²)

Expand to show TLE details & history
Last TLE update: 9 hours ago

TLE from 9 hours ago
0 XW-3 (CAS 9)
1 50466U 21131B   25346.99727677  .00001122  00000-0  36209-3 0  9992
2 50466  98.5049  75.4168 0003152 306.1958  53.8939 14.41113377208292
Epoch: 2025-12-12T23:56Z
TLE epoch observation values (Epoch: 2025-12-12T23:56:04.712Z)
Latitude
-0.00005°
Longitude
-5.5337°
Altitude
756.447 km
Speed
7.477 km/s
True Right ascension
05h 01m 40s
True Declination
0° 00' 00"
Sunlit
Object was in full shadow at epoch
Visualization orbit readout
Latitude
Unknown
Longitude
Unknown
Altitude
Unknown
Speed
Unknown
Apparent Right ascension
Unknown
Apparent Declination
Unknown
Sunlit
N/A
Visualization observer readout
Local Sidereal Time
07:33:25
Azimuth
Unknown
Elevation
Unknown
Doppler factor
Unknown
Orbital elements
Apogee altitude
754.19 km
Perigee altitude
749.695 km
Semi-major axis
7,130.08 km
Eccentricity
0.00032
Inclination
98.5049°
RAAN
75.4168°
Arg. of periapsis
306.1958°
True anomaly
53.92309°
Mean anomaly
53.8939°
Eccentric anomaly
53.90849°
Mean motion
3.60497 °/min
Orbital period
99.86 mins
BSTAR
0.00036209
Loading maneuver chart data...
Computing Atmospheric mass density...
Loading historical data...
Loading historical data...
Loading historical data...
Loading historical data...
Loading historical data...
Loading historical data...
Loading historical data...
Other satellites on launch #131 in the year 2021 (2021-12-26 UTC)

Documentation

Showing up to 5 results
|